Content
SEND FEEDBACK

Daily
Averages
Monthly
Summary
Turkey

GAZIANTEP, TURKEY


Home > Middle East > Turkey
Elevation: 2805 feet     Latitude: 37 05N     Longitude: 037 22E

WEATHER
 
SELECT A DAY
Number of Records: 212,887;   Date Range: 7/1/96 - 10/20/14
 
SHARE

PRINT THIS DATA

[ ← Previous Day ]
WEATHER ALMANAC - MARCH 12, 2013
[ Next Day → ]
[ °C ]   °F
Weather ElementAverageHighLow
Temperature55.2 °F66.2 °F (1:50 pm)41 °F (1:20 am)
Dewpoint46.6 °F51.8 °F (4:50 pm)39.2 °F (4:50 am)
Humidity73.9 %100 % (1:20 am)42 % (2:00 pm)
Barometer29.94 in29.98 in (7:50 am)29.89 in (10:50 pm)
Wind Speed4.1 mph12.7 mph (9:50 pm)
Weather ElementAverage
Visibility5.2 mi
Wind DirectionSSE (143.4 °)

Weather ElementTotal
Precipitation---
Heating Degree Days11.4 (Base 65)
Growing Degree Days3.6 (Base 50)
Averaged from 51 records on March 12, 2013
WEATHER CONDITIONS BREAKOUT
WIND DIRECTION BREAKOUT
WEATHER BY HOUR - MARCH 12, 2013
[ °C ]   °F
Local TimeTemperatureDewpointHumidityBarometerVisibilityWind DirectionWind SpeedGust SpeedPrecipitationEventsConditions
12:50 AM42.8 °F41.0 °F93 %29.95 in2.5 miVariable1.2 mphMostly Cloudy
1:20 AM41.0 °F41.0 °F100 %29.95 in2.5 miVariable2.3 mphMostly Cloudy
1:50 AM42.8 °F41.0 °F93 %29.95 in2.5 miVariable1.2 mphMostly Cloudy
2:00 AM42.0 °F41.0 °F97 %29.96 in2.0 miWNW (290°)1.2 mphMist
2:20 AM42.8 °F41.0 °F93 %29.95 in2.5 miCalmMostly Cloudy
2:50 AM42.8 °F42.8 °F100 %29.95 in2.5 miCalmMostly Cloudy
3:20 AM42.8 °F41.0 °F93 %29.95 in2.5 miNorth (350°)4.6 mphMostly Cloudy
3:50 AM42.8 °F41.0 °F93 %29.95 in2.5 miNorth (360°)4.6 mphMostly Cloudy
4:20 AM44.6 °F42.8 °F93 %29.95 in2.5 miNorth (360°)4.6 mphMostly Cloudy
4:50 AM41.0 °F39.2 °F93 %29.95 in2.5 miWNW (300°)3.5 mphMostly Cloudy
5:20 AM41.0 °F41.0 °F100 %29.95 in2.5 miWest (260°)2.3 mphMostly Cloudy
5:50 AM42.8 °F41.0 °F93 %29.95 in2.5 miNorth (350°)3.5 mphMostly Cloudy
6:20 AM42.8 °F41.0 °F93 %29.95 in2.5 miNW (320°)3.5 mphMostly Cloudy
6:50 AM42.8 °F41.0 °F93 %29.95 in4.3 miWest (260°)3.5 mphMostly Cloudy
7:20 AM46.4 °F42.8 °F87 %29.95 in6.2 miNNW (330°)3.5 mphMostly Cloudy
7:50 AM48.2 °F44.6 °F87 %29.98 in6.2 miCalmMostly Cloudy
8:00 AM49.0 °F45.0 °F80 %29.97 in6.0 miCalmPartly Cloudy
8:20 AM53.6 °F46.4 °F77 %29.98 in6.2 miVariable1.2 mphMostly Cloudy
8:50 AM57.2 °F46.4 °F67 %29.98 in6.2 miVariable1.2 mphMostly Cloudy
9:20 AM57.2 °F48.2 °F72 %29.98 in6.2 miESE (110°)4.6 mphMostly Cloudy
9:50 AM59.0 °F46.4 °F63 %29.98 in6.2 miEast (100°)4.6 mphMostly Cloudy
10:20 AM60.8 °F48.2 °F63 %29.98 in6.2 miSSE (160°)4.6 mphMostly Cloudy
10:50 AM60.8 °F48.2 °F63 %29.98 in6.2 miSE (130°)6.9 mphMostly Cloudy
11:20 AM62.6 °F50.0 °F63 %29.95 in6.2 miSSE (160°)6.9 mphMostly Cloudy
11:50 AM62.6 °F48.2 °F59 %29.95 in6.2 miSE (130°)5.8 mphMostly Cloudy
12:20 PM64.4 °F48.2 °F56 %29.95 in6.2 miVariable5.8 mphMostly Cloudy
12:50 PM64.4 °F50.0 °F59 %29.92 in6.2 miSSE (160°)5.8 mphMostly Cloudy
1:20 PM64.4 °F50.0 °F59 %29.95 in6.2 miSouth (180°)6.9 mphMostly Cloudy
1:50 PM66.2 °F50.0 °F56 %29.95 in6.2 miSW (230°)5.8 mphMostly Cloudy
2:00 PM66.0 °F48.0 °F42 %29.93 in6.0 miSW (230°)5.8 mphPartly Cloudy
2:20 PM66.2 °F50.0 °F56 %29.95 in6.2 miSouth (190°)5.8 mphMostly Cloudy
2:50 PM66.2 °F48.2 °F52 %29.92 in6.2 miCalmMostly Cloudy
3:20 PM66.2 °F48.2 °F52 %29.92 in6.2 miSouth (180°)3.5 mphMostly Cloudy
3:50 PM64.4 °F50.0 °F59 %29.92 in6.2 miSouth (170°)10.4 mphMostly Cloudy
4:20 PM64.4 °F50.0 °F59 %29.95 in6.2 miSouth (180°)6.9 mphMostly Cloudy
4:50 PM64.4 °F51.8 °F64 %29.92 in6.2 miSouth (170°)5.8 mphMostly Cloudy
5:20 PM62.6 °F51.8 °F68 %29.92 in6.2 miSSE (160°)4.6 mphMostly Cloudy
5:50 PM60.8 °F50.0 °F68 %29.92 in6.2 miSE (140°)3.5 mphMostly Cloudy
6:20 PM59.0 °F51.8 °F77 %29.92 in6.2 miESE (120°)4.6 mphMostly Cloudy
6:50 PM59.0 °F50.0 °F72 %29.95 in6.2 miCalmMostly Cloudy
7:20 PM59.0 °F50.0 °F72 %29.95 in6.2 miVariable2.3 mphMostly Cloudy
7:50 PM59.0 °F50.0 °F72 %29.95 in6.2 miNNE (20°)3.5 mphMostly Cloudy
8:00 PM59.0 °F49.0 °F60 %29.94 in6.0 miNNE (20°)3.5 mphPartly Cloudy
8:20 PM59.0 °F48.2 °F67 %29.95 in6.2 miNorth (350°)4.6 mphMostly Cloudy
8:50 PM57.2 °F50.0 °F77 %29.95 in6.2 miVariable2.3 mphMostly Cloudy
9:20 PM59.0 °F48.2 °F67 %29.95 in6.2 miSSE (150°)8.1 mphMostly Cloudy
9:50 PM60.8 °F48.2 °F63 %29.92 in6.2 miESE (120°)12.7 mphRainLight Rain Showers
10:20 PM59.0 °F48.2 °F67 %29.92 in6.2 miSE (140°)9.2 mphMostly Cloudy
10:50 PM59.0 °F48.2 °F67 %29.89 in6.2 miSSE (150°)6.9 mphMostly Cloudy
11:20 PM57.2 °F48.2 °F72 %29.89 in6.2 miSE (140°)4.6 mphMostly Cloudy
11:50 PM55.4 °F48.2 °F77 %29.89 in6.2 miCalmMostly Cloudy
Hourly data recorded from LTAJ, located miles away from Gaziantep, Turkey







STORIES FROM OUR PARTNERS